| time (UTC) | temp F | wind direction | speed knots | gust knots | rain 1hr in | rain 24hr in | rain mn in | humidity % | barometer mb |
| 20260507180041 | 68 | 255 | 7.8 | 13.9 | 0.00 | 0.00 | 0.00 | 40 | 1013.2 |
| 20260507174538 | 67 | 220 | 7.8 | 13.0 | 0.00 | 0.00 | 0.00 | 42 | 1013.5 |
| 20260507173042 | 66 | 140 | 7.0 | 14.8 | 0.00 | 0.00 | 0.00 | 42 | 1013.9 |
| 20260507171529 | 64 | 282 | 12.2 | 17.4 | 0.00 | 0.00 | 0.00 | 43 | 1014.4 |
| 20260507170028 | 64 | 147 | 8.7 | 14.8 | 0.00 | 0.00 | 0.00 | 44 | 1014.4 |
| 20260507164524 | 63 | 218 | 9.6 | 20.0 | 0.00 | 0.00 | 0.00 | 47 | 1014.8 |
| 20260507163020 | 61 | 257 | 10.4 | 19.1 | 0.00 | 0.00 | 0.00 | 48 | 1014.8 |
| 20260507161521 | 60 | 193 | 9.6 | 16.5 | 0.00 | 0.00 | 0.00 | 50 | 1015.1 |
| 20260507160013 | 60 | 225 | 10.4 | 17.4 | 0.00 | 0.00 | 0.00 | 50 | 1015.3 |
| 20260507154513 | 59 | 201 | 8.7 | 17.4 | 0.00 | 0.00 | 0.00 | 52 | 1015.4 |
| 20260507153008 | 58 | 218 | 8.7 | 19.1 | 0.00 | 0.00 | 0.00 | 55 | 1015.5 |
| 20260507151504 | 57 | 193 | 9.6 | 17.4 | 0.00 | 0.00 | 0.00 | 55 | 1016.0 |
| 20260507150100 | 56 | 229 | 8.7 | 18.2 | 0.00 | 0.00 | 0.00 | 58 | 1016.2 |
| 20260507144616 | 55 | 241 | 8.7 | 15.6 | 0.00 | 0.00 | 0.00 | 60 | 1016.3 |
| 20260507143055 | 54 | 269 | 5.2 | 13.0 | 0.00 | 0.00 | 0.00 | 64 | 1016.4 |
| 20260507141610 | 53 | 225 | 6.1 | 17.4 | 0.00 | 0.00 | 0.00 | 67 | 1016.4 |
| 20260507140045 | 52 | 237 | 7.8 | 15.6 | 0.00 | 0.00 | 0.00 | 69 | 1016.7 |
| 20260507134545 | 51 | 247 | 7.0 | 13.9 | 0.00 | 0.00 | 0.00 | 71 | 1016.9 |
| 20260507133040 | 50 | 216 | 9.6 | 13.9 | 0.00 | 0.00 | 0.00 | 75 | 1017.0 |
| 20260507131542 | 49 | 228 | 5.2 | 13.0 | 0.00 | 0.00 | 0.00 | 79 | 1017.1 |
| 20260507130037 | 47 | 249 | 5.2 | 12.2 | 0.00 | 0.00 | 0.00 | 81 | 1016.8 |
| 20260507124536 | 46 | 226 | 2.6 | 7.8 | 0.00 | 0.00 | 0.00 | 83 | 1016.9 |
| 20260507123036 | 46 | 222 | 4.3 | 8.7 | 0.00 | 0.00 | 0.00 | 84 | 1016.9 |
| 20260507121534 | 45 | 247 | 2.6 | 8.7 | 0.00 | 0.00 | 0.00 | 85 | 1016.9 |
| 20260507120033 | 44 | 228 | 2.6 | 7.0 | 0.00 | 0.00 | 0.00 | 85 | 1016.9 |
| 20260507114532 | 43 | 219 | 2.6 | 4.3 | 0.00 | 0.00 | 0.00 | 85 | 1017.0 |
| 20260507113030 | 44 | 216 | 1.7 | 4.3 | 0.00 | 0.00 | 0.00 | 85 | 1017.0 |
| 20260507111539 | 43 | 192 | 2.6 | 5.2 | 0.00 | 0.00 | 0.00 | 86 | 1017.0 |
| 20260507110026 | 43 | 235 | 0.9 | 2.6 | 0.00 | 0.00 | 0.00 | 85 | 1017.3 |
| 20260507104525 | 44 | 210 | 0.9 | 3.5 | 0.00 | 0.00 | 0.00 | 85 | 1017.3 |
| 20260507103022 | 44 | 210 | 2.6 | 5.2 | 0.00 | 0.00 | 0.00 | 85 | 1017.3 |
| 20260507101521 | 44 | 229 | 2.6 | 5.2 | 0.00 | 0.00 | 0.00 | 85 | 1017.4 |
| 20260507100019 | 45 | 223 | 3.5 | 5.2 | 0.00 | 0.00 | 0.00 | 84 | 1017.5 |
| 20260507094516 | 45 | 204 | 2.6 | 5.2 | 0.00 | 0.02 | 0.00 | 84 | 1017.5 |
| 20260507093020 | 45 | 193 | 1.7 | 4.3 | 0.00 | 0.02 | 0.00 | 84 | 1017.5 |
| 20260507091519 | 45 | 207 | 1.7 | 4.3 | 0.00 | 0.02 | 0.00 | 84 | 1017.5 |
| 20260507090017 | 45 | 208 | 2.6 | 4.3 | 0.00 | 0.02 | 0.00 | 84 | 1017.6 |
| 20260507084510 | 45 | 226 | 1.7 | 4.3 | 0.00 | 0.03 | 0.00 | 83 | 1017.7 |
| 20260507083008 | 45 | 199 | 0.9 | 3.5 | 0.00 | 0.03 | 0.00 | 83 | 1017.9 |
| 20260507081515 | 46 | 251 | 2.6 | 6.1 | 0.00 | 0.03 | 0.00 | 82 | 1018.1 |
| 20260507080003 | 46 | 253 | 1.7 | 6.1 | 0.00 | 0.03 | 0.00 | 81 | 1018.3 |
| 20260507074500 | 46 | 243 | 2.6 | 7.0 | 0.00 | 0.03 | 0.00 | 80 | 1018.4 |
| 20260507073103 | 47 | 201 | 0.9 | 4.3 | 0.00 | 0.03 | 0.00 | 78 | 1018.4 |
| 20260507071557 | 48 | 260 | 2.6 | 6.1 | 0.00 | 0.03 | 0.00 | 77 | 1018.6 |
| 20260507070059 | 48 | 249 | 2.6 | 6.1 | 0.00 | 0.03 | 0.00 | 76 | 1018.8 |
| 20260507064552 | 48 | 237 | 2.6 | 5.2 | 0.00 | 0.03 | 0.00 | 75 | 1018.8 |
| 20260507063052 | 48 | 241 | 1.7 | 4.3 | 0.00 | 0.03 | 0.00 | 75 | 1018.9 |
| 20260507061548 | 49 | 258 | 1.7 | 3.5 | 0.00 | 0.03 | 0.00 | 74 | 1018.9 |
| 20260507060056 | 49 | 254 | 1.7 | 4.3 | 0.00 | 0.03 | 0.00 | 73 | 1019.0 |
| 20260507054548 | 50 | 239 | 1.7 | 3.5 | 0.00 | 0.03 | 0.00 | 72 | 1019.1 |
| 20260507053042 | 51 | 235 | 2.6 | 6.1 | 0.00 | 0.03 | 0.00 | 70 | 1019.2 |
| 20260507051539 | 51 | 243 | 2.6 | 5.2 | 0.00 | 0.03 | 0.00 | 70 | 1019.2 |
| 20260507050037 | 51 | 263 | 1.7 | 3.5 | 0.00 | 0.03 | 0.00 | 69 | 1019.3 |
| 20260507044548 | 51 | 245 | 1.7 | 3.5 | 0.00 | 0.03 | 0.03 | 69 | 1019.3 |
| 20260507043035 | 51 | 196 | 1.7 | 3.5 | 0.00 | 0.03 | 0.03 | 68 | 1019.3 |
| 20260507041534 | 51 | 252 | 1.7 | 2.6 | 0.00 | 0.03 | 0.03 | 68 | 1019.3 |
| 20260507040036 | 51 | 209 | 1.7 | 3.5 | 0.00 | 0.03 | 0.03 | 67 | 1019.3 |
| 20260507034538 | 51 | 204 | 0.0 | 1.7 | 0.00 | 0.05 | 0.03 | 66 | 1019.3 |
| 20260507033035 | 51 | 204 | 0.9 | 2.6 | 0.00 | 0.05 | 0.03 | 66 | 1019.2 |
| 20260507031532 | 52 | 228 | 0.9 | 2.6 | 0.00 | 0.05 | 0.03 | 65 | 1019.4 |
| 20260507030031 | 52 | 228 | 0.9 | 2.6 | 0.00 | 0.05 | 0.03 | 62 | 1019.1 |
| 20260507024530 | 53 | 228 | 0.0 | 1.7 | 0.00 | 0.05 | 0.03 | 60 | 1018.9 |
| 20260507023030 | 53 | 228 | 0.9 | 4.3 | 0.00 | 0.05 | 0.03 | 59 | 1018.7 |
| 20260507021531 | 53 | 239 | 3.5 | 6.1 | 0.00 | 0.05 | 0.03 | 58 | 1019.0 |
| 20260507020040 | 53 | 262 | 1.7 | 3.5 | 0.00 | 0.05 | 0.03 | 58 | 1019.0 |
| 20260507014528 | 53 | 236 | 0.9 | 1.7 | 0.00 | 0.06 | 0.03 | 57 | 1018.6 |
| 20260507013030 | 54 | 236 | 0.9 | 2.6 | 0.00 | 0.06 | 0.03 | 56 | 1018.5 |
| 20260507011527 | 55 | 256 | 0.9 | 1.7 | 0.00 | 0.06 | 0.03 | 54 | 1018.4 |
| 20260507010029 | 56 | 249 | 1.7 | 3.5 | 0.00 | 0.06 | 0.03 | 51 | 1018.5 |
| 20260507004531 | 57 | 287 | 1.7 | 5.2 | 0.00 | 0.06 | 0.03 | 49 | 1018.4 |
| 20260507003028 | 57 | 239 | 0.9 | 3.5 | 0.00 | 0.06 | 0.03 | 50 | 1018.5 |
| 20260507001534 | 58 | 242 | 2.6 | 4.3 | 0.00 | 0.06 | 0.03 | 47 | 1018.5 |
| 20260507000023 | 60 | 293 | 1.7 | 4.3 | 0.00 | 0.06 | 0.03 | 44 | 1018.6 |
| 20260506234523 | 60 | 274 | 1.7 | 7.0 | 0.00 | 0.06 | 0.03 | 42 | 1018.6 |
| 20260506233020 | 59 | 273 | 4.3 | 8.7 | 0.00 | 0.06 | 0.03 | 44 | 1018.6 |
| 20260506231519 | 59 | 268 | 3.5 | 7.8 | 0.00 | 0.06 | 0.03 | 44 | 1018.6 |
| 20260506230017 | 60 | 278 | 4.3 | 8.7 | 0.00 | 0.06 | 0.03 | 43 | 1018.7 |
| 20260506224520 | 60 | 312 | 6.1 | 10.4 | 0.00 | 0.06 | 0.03 | 43 | 1018.7 |
| 20260506223017 | 60 | 281 | 1.7 | 8.7 | 0.00 | 0.06 | 0.03 | 43 | 1018.6 |
| 20260506221516 | 61 | 8 | 3.5 | 8.7 | 0.00 | 0.06 | 0.03 | 42 | 1018.7 |
| 20260506220015 | 60 | 27 | 3.5 | 10.4 | 0.00 | 0.06 | 0.03 | 43 | 1018.8 |
| 20260506214514 | 59 | 39 | 1.7 | 7.8 | 0.00 | 0.06 | 0.03 | 45 | 1018.9 |
| 20260506213014 | 60 | 359 | 1.7 | 7.0 | 0.00 | 0.06 | 0.03 | 42 | 1019.1 |
| 20260506211514 | 61 | 10 | 0.9 | 7.0 | 0.00 | 0.06 | 0.03 | 41 | 1019.2 |
| 20260506210017 | 60 | 302 | 2.6 | 7.0 | 0.00 | 0.06 | 0.03 | 42 | 1019.5 |
| 20260506204513 | 60 | 58 | 0.9 | 8.7 | 0.00 | 0.06 | 0.03 | 42 | 1019.7 |
| 20260506203010 | 60 | 340 | 1.7 | 3.5 | 0.00 | 0.06 | 0.03 | 41 | 1019.9 |
| 20260506201510 | 59 | 319 | 2.6 | 6.1 | 0.00 | 0.06 | 0.03 | 44 | 1020.1 |
| 20260506200008 | 58 | 359 | 2.6 | 7.8 | 0.00 | 0.06 | 0.03 | 45 | 1020.4 |
| 20260506194508 | 57 | 285 | 2.6 | 7.0 | 0.00 | 0.06 | 0.03 | 45 | 1020.5 |
| 20260506193007 | 58 | 337 | 0.9 | 4.3 | 0.00 | 0.06 | 0.03 | 43 | 1020.6 |
| 20260506191507 | 59 | 4 | 2.6 | 7.0 | 0.00 | 0.06 | 0.03 | 42 | 1020.6 |
| 20260506190007 | 58 | 234 | 0.0 | 7.0 | 0.00 | 0.06 | 0.03 | 43 | 1020.6 |
| 20260506184508 | 59 | 354 | 2.6 | 6.1 | 0.00 | 0.06 | 0.03 | 41 | 1020.6 |
| 20260506183007 | 57 | 59 | 0.9 | 7.0 | 0.00 | 0.06 | 0.03 | 42 | 1020.7 |
| 20260506181507 | 59 | 107 | 4.3 | 8.7 | 0.00 | 0.06 | 0.03 | 38 | 1020.6 |